Location: Gebenbach
(49.5378°N, 11.8735°E)
Time: 12:04:20
(UTC+00:00)

Meteor 2-15 - Pass Details

Date: 29 October 2020
Orbit: 935 x 956 km, 82.5° (Epoch: 25 November)

Event Time Altitude Azimuth Distance (km) Brightness Sun altitude
Rises 17:45:47 0° 189° (S) 3,621 7.6 -18.5°
Reaches altitude 10° 17:48:16 10° 190° (S) 2,678 6.9 -18.9°
Maximum altitude 17:54:25 87° 281° (W) 962 4.4 -19.9°
Drops below altitude 10° 18:00:35 10° 10° (N) 2,686 6.7 -20.9°
Sets 18:03:05 0° 11° (N) 3,632 7.4 -21.3°
